| time (UTC) | temp F | wind direction | speed MPH | gust MPH | rain 1hr in | rain 24hr in | rain mn in | humidity % | barometer mb |
| 20260504230019 | 74 | 222 | 0.0 | 4.0 | 0.00 | 0.00 | 0.00 | 24 | 1014.7 |
| 20260504224518 | 74 | 148 | 3.0 | 6.0 | 0.00 | 0.00 | 0.00 | 23 | 1014.7 |
| 20260504223018 | 74 | 211 | 5.0 | 8.0 | 0.00 | 0.00 | 0.00 | 22 | 1014.8 |
| 20260504220022 | 76 | 156 | 3.0 | 9.0 | 0.00 | 0.00 | 0.00 | 21 | 1014.7 |
| 20260504214517 | 75 | 207 | 3.0 | 11.0 | 0.00 | 0.00 | 0.00 | 22 | 1014.8 |
| 20260504213016 | 75 | 207 | 3.0 | 11.0 | 0.00 | 0.00 | 0.00 | 21 | 1014.8 |
| 20260504210014 | 76 | 182 | 7.0 | 16.0 | 0.00 | 0.00 | 0.00 | 21 | 1014.8 |
| 20260504204514 | 76 | 116 | 4.0 | 9.0 | 0.00 | 0.00 | 0.00 | 20 | 1014.9 |
| 20260504203014 | 76 | 200 | 3.0 | 12.0 | 0.00 | 0.00 | 0.00 | 21 | 1015.0 |
| 20260504201609 | 76 | 211 | 4.0 | 9.0 | 0.00 | 0.00 | 0.00 | 19 | 1015.2 |
| 20260504200016 | 76 | 213 | 8.0 | 15.0 | 0.00 | 0.00 | 0.00 | 20 | 1015.5 |
| 20260504194506 | 75 | 223 | 6.0 | 10.0 | 0.00 | 0.00 | 0.00 | 20 | 1015.6 |
| 20260504193004 | 75 | 198 | 6.0 | 11.0 | 0.00 | 0.00 | 0.00 | 21 | 1015.8 |
| 20260504190003 | 75 | 171 | 5.0 | 9.0 | 0.00 | 0.00 | 0.00 | 21 | 1016.1 |
| 20260504184615 | 74 | 186 | 4.0 | 11.0 | 0.00 | 0.00 | 0.00 | 21 | 1016.5 |
| 20260504183059 | 74 | 136 | 9.0 | 12.0 | 0.00 | 0.00 | 0.00 | 21 | 1016.6 |
| 20260504181655 | 74 | 281 | 3.0 | 10.0 | 0.00 | 0.00 | 0.00 | 25 | 1016.7 |
| 20260504180051 | 73 | 143 | 3.0 | 9.0 | 0.00 | 0.00 | 0.00 | 22 | 1016.9 |
| 20260504174549 | 73 | 206 | 5.0 | 10.0 | 0.00 | 0.00 | 0.00 | 22 | 1016.9 |
| 20260504173049 | 73 | 239 | 3.0 | 7.0 | 0.00 | 0.00 | 0.00 | 23 | 1017.1 |
| 20260504171647 | 72 | 140 | 3.0 | 7.0 | 0.00 | 0.00 | 0.00 | 24 | 1017.2 |
| 20260504081534 | 42 | 233 | 0.0 | 0.0 | 0.00 | 0.00 | 0.00 | 65 | 1017.9 |
| 20260504050021 | 46 | 226 | 0.0 | 0.0 | 0.00 | 0.00 | 0.00 | 62 | 1018.3 |
| 20260504044530 | 47 | 226 | 0.0 | 0.0 | 0.00 | 0.00 | 0.00 | 60 | 1018.1 |
| 20260504043025 | 47 | 225 | 0.0 | 0.0 | 0.00 | 0.00 | 0.00 | 60 | 1017.7 |
| 20260504041523 | 48 | 225 | 0.0 | 0.0 | 0.00 | 0.00 | 0.00 | 59 | 1018.0 |
| 20260504040025 | 49 | 228 | 0.0 | 0.0 | 0.00 | 0.00 | 0.00 | 58 | 1018.1 |
| 20260504034534 | 49 | 227 | 0.0 | 0.0 | 0.00 | 0.00 | 0.00 | 58 | 1018.1 |
| 20260504033024 | 49 | 228 | 0.0 | 0.0 | 0.00 | 0.00 | 0.00 | 59 | 1018.4 |
| 20260504031524 | 50 | 224 | 0.0 | 0.0 | 0.00 | 0.00 | 0.00 | 57 | 1018.5 |
| 20260504030036 | 50 | 223 | 0.0 | 0.0 | 0.00 | 0.00 | 0.00 | 56 | 1018.4 |
| 20260504024518 | 51 | 222 | 0.0 | 0.0 | 0.00 | 0.00 | 0.00 | 55 | 1018.5 |
| 20260504023018 | 52 | 226 | 0.0 | 0.0 | 0.00 | 0.00 | 0.00 | 54 | 1018.3 |
| 20260504021518 | 52 | 226 | 0.0 | 0.0 | 0.00 | 0.00 | 0.00 | 53 | 1018.1 |
| 20260504020018 | 53 | 224 | 0.0 | 0.0 | 0.00 | 0.00 | 0.00 | 51 | 1017.8 |
| 20260504014532 | 53 | 223 | 0.0 | 0.0 | 0.00 | 0.00 | 0.00 | 51 | 1017.5 |
| 20260504013017 | 54 | 224 | 0.0 | 0.0 | 0.00 | 0.00 | 0.00 | 50 | 1017.5 |
| 20260504011517 | 56 | 223 | 0.0 | 0.0 | 0.00 | 0.00 | 0.00 | 45 | 1017.4 |
| 20260504010021 | 57 | 223 | 0.0 | 0.0 | 0.00 | 0.00 | 0.00 | 43 | 1017.2 |
| 20260504004517 | 59 | 221 | 0.0 | 0.0 | 0.00 | 0.00 | 0.00 | 40 | 1017.1 |
| 20260504003026 | 61 | 218 | 0.0 | 0.0 | 0.00 | 0.00 | 0.00 | 36 | 1017.2 |
| 20260504001515 | 63 | 220 | 0.0 | 2.0 | 0.00 | 0.00 | 0.00 | 32 | 1017.2 |
| 20260504000015 | 64 | 221 | 1.0 | 2.0 | 0.00 | 0.00 | 0.00 | 29 | 1016.9 |
| 20260503234529 | 65 | 221 | 2.0 | 3.0 | 0.00 | 0.00 | 0.00 | 28 | 1016.8 |
| 20260503233015 | 66 | 215 | 2.0 | 9.0 | 0.00 | 0.00 | 0.00 | 26 | 1016.7 |